This demonstration page uses our WeatherBlox Daily Observations layout. Learn more.

Left ArrowRight Arrow

34.74481, -87.66753

Hourly Observations for May 4, 2020

Temp ( °F °C ) Dew Point ( °F °C ) Humidity (%) Winds ( mph kmh ) Pressure ( in mb ) Visibility ( mi km ) Precip ( " mm )
12:53 am 00:53 Mostly Clear 64 17.8 60 15.6 87 87 Calm 29.93 1014 10 16 0.00 0.00
1:53 am 01:53 Clear 65 18.3 61 16.1 87 87 NE 6 9 29.93 1013 10 16 0.00 0.00
2:53 am 02:53 Partly Cloudy 64 17.8 60 15.6 87 87 Calm 29.93 1014 10 16 0.00 0.00
3:53 am 03:53 Cloudy 65 18.3 60 15.6 84 84 Calm 29.94 1014 10 16 0.00 0.00
4:53 am 04:53 Mostly Cloudy 64 17.8 60 15.6 87 87 SE 3 6 29.94 1014 10 16 0.00 0.00
5:53 am 05:53 Cloudy 65 18.3 61 16.1 87 87 Calm 29.95 1014 10 16 0.00 0.00
6:53 am 06:53 Cloudy 66 18.9 61 16.1 84 84 Calm 29.96 1015 10 16 0.00 0.00
7:53 am 07:53 Cloudy 67 19.4 62 16.7 84 84 ESE 3 6 29.97 1015 10 16 0.00 0.00
8:53 am 08:53 Mostly Cloudy 70 21.1 62 16.7 76 76 SSE 3 6 29.97 1015 10 16 0.00 0.00
9:53 am 09:53 Mostly Sunny 76 24.4 63 17.2 64 64 ENE 5 7 29.96 1015 10 16 0.00 0.00
10:53 am 10:53 Sunny 80 26.7 63 17.2 56 56 VRB 3 6 29.96 1015 10 16 0.00 0.00
11:53 am 11:53 Cloudy 79 26.1 64 17.8 60 60 VRB 3 6 29.93 1014 10 16 0.00 0.00
12:53 pm 12:53 Mostly Cloudy 82 27.8 65 18.3 56 56 E 3 6 29.91 1013 10 16 0.00 0.00
1:53 pm 13:53 Cloudy 83 28.3 65 18.3 55 55 Calm 29.90 1013 10 16 0.00 0.00
2:53 pm 14:53 Partly Cloudy 83 28.3 66 18.9 57 57 SE 3 6 29.88 1012 10 16 0.00 0.00
3:53 pm 15:53 Partly Cloudy 83 28.3 66 18.9 57 57 SSW 3 6 29.86 1011 10 16 0.00 0.00
4:53 pm 16:53 Cloudy 82 27.8 67 19.4 60 60 N 5 7 29.87 1012 10 16 0.00 0.00
5:26 pm 17:26 Mostly Cloudy 79 26.1 68 20 69 69 NE 7 11 29.86 1011 10 16 0.00 0.00
5:53 pm 17:53 Cloudy 78 25.6 68 20 71 71 ENE 5 7 29.85 1011 10 16 0.00 0.00
6:53 pm 18:53 Sunny 77 25 68 20 74 74 ESE 8 13 29.78 1008 10 16 0.00 0.00
7:53 pm 19:53 Clear with Light Rain 78 25.6 68 20 71 71 Calm 29.81 1009 10 16 0.00 0.00
8:45 pm 20:45 Clear with Nearby Thunderstorms 76 24.4 68 20 77 77 N 3 6 29.88 1012 10 16 0.00 0.00
8:53 pm 20:53 Clear with Nearby Thunderstorms 75 23.9 68 20 79 79 NNW 8 13 29.91 1013 10 16 0.00 0.00
9:00 pm 21:00 Clear 75 23.9 69 20.6 82 82 NNW 6 9 29.90 1013 10 16 0.00 0.00
9:20 pm 21:20 Clear with Nearby Thunderstorms 75 23.9 69 20.6 82 82 N 14 22 29.92 1013 10 16 0.00 0.00
9:27 pm 21:27 Partly Cloudy 74 23.3 65 18.3 74 74 N 15 24 29.91 1013 10 16 0.00 0.00
9:53 pm 21:53 Mostly Clear 69 20.6 62 16.7 78 78 SE 8 13 29.88 1012 10 16 0.00 0.00
10:53 pm 22:53 Clear 69 20.6 63 17.2 81 81 NE 6 9 29.91 1013 10 16 0.00 0.00
11:53 pm 23:53 Clear 68 20 62 16.7 81 81 E 6 9 29.86 1011 10 16 0.00 0.00

Powered by AerisWeather